Location: *
(16.4741°N, 9.3152°W)
Time: 14:13:43
(UTC+00:00)

Daily predictions for brighter satellites

Satellite Brightness Start Highest point End
(mag) Time Altitude Azimuth Time Altitude Azimuth Time Altitude Azimuth
Intelsat 5-2 Rocket 4.4 18:41:57 10° WSW 18:46:10 79° NNW 18:59:55 10° ENE
Cosmos 1743 3.5 18:50:56 10° SSW 18:54:41 59° W 18:58:27 10° N
NOAA 12 4.3 18:55:33 10° S 19:00:46 80° WSW 19:06:00 10° NNW
YAOGAN 1 2.9 19:02:12 10° SSE 19:06:17 43° ENE 19:10:24 10° N
Cosmos 1975 3.4 19:03:20 10° SSW 19:07:15 62° W 19:11:11 10° N
Cosmos 2219 3.8 19:07:52 10° SSE 19:12:59 35° ESE 19:18:08 10° NE
SWIFT 2.4 19:09:20 10° W 19:13:32 71° SSW 19:17:14 13° ESE
Cosmos 2227 Rocket 3.5 19:10:58 10° SE 19:14:31 17° ESE 19:18:05 10° ENE
Cosmos 2360 Rocket 2.9 19:12:00 10° N 19:17:01 32° ENE 19:22:01 10° SE
Meteor 2-9 Rocket 4.3 19:11:43 10° S 19:17:35 86° E 19:23:22 10° N
Cosmos 1025 Rocket 4.2 19:14:38 10° NE 19:17:48 20° E 19:20:58 10° SE
GPS 2-17 Rocket1 2.9 19:19:11 10° W 19:23:34 83° N 19:26:50 17° ENE
Cosmos 2297 Rocket 3.1 19:21:04 10° SSE 19:25:34 25° ESE 19:30:02 10° NE
Okean 2 3.4 19:26:09 10° N 19:30:15 83° W 19:34:22 10° S
Cosmos 405 2.8 19:27:16 10° N 19:30:42 66° E 19:34:08 10° SSE
Cosmos 1842 3.9 19:27:18 10° NNE 19:30:54 34° E 19:34:16 11° SSE
Lacrosse 4 Rocket 1.2 19:27:35 10° NNW 19:31:36 69° ENE 19:35:37 10° SSE
GPS 2-14 Rocket1 3.1 19:29:02 10° W 19:32:44 50° N 19:34:57 21° ENE
Envisat 4.1 19:28:14 10° S 19:33:06 48° W 19:37:59 10° NNW
Cosmos 1544 2.9 19:32:19 10° S 19:35:52 78° E 19:39:27 10° N
SL-16 R/B 3.1 19:30:38 10° NNW 19:36:05 51° WSW 19:41:33 10° S
ADEOS Rocket 4.1 19:30:36 10° NE 19:37:15 32° E 19:43:55 10° SSE
CZ-4 R/B 2.9 19:36:10 10° SSW 19:39:43 36° W 19:43:17 10° NNW
CZ-2C R/B 3.6 19:36:19 10° NNE 19:40:41 62° ESE 19:45:03 10° S
CZ-2C R/B 4.1 19:40:59 10° SSW 19:44:25 71° W 20:02:00 10° N
Cosmos 2251 Rocket 3.9 19:45:29 10° N 19:50:29 40° ENE 19:52:02 33° ESE
Cosmos 1441 Rocket 4.0 19:47:10 10° SSW 19:50:58 53° W 19:54:43 10° N
Cosmos 2074 Rocket 3.9 19:50:48 10° N 19:57:01 85° E 20:03:14 10° S
Cosmos 2333 Rocket 3.6 19:54:21 10° NNE 19:57:12 20° NE 19:57:12 20° NE
ASTEX 1 3.2 19:54:40 10° NNE 19:59:31 67° E 20:04:22 10° S
ISS -0.8 20:05:22 10° W 20:07:24 15° NW 20:09:27 10° N
COSMOS 2455 3.0 20:04:17 10° N 20:10:01 46° ENE 20:10:18 46° ENE
Genesis I 3.3 20:08:36 10° NNW 20:12:23 68° WSW 20:12:23 68° WSW
Mugunghwa Rocket 4.3 20:08:16 10° W 20:14:27 57° NNW 20:17:00 35° NE
Ariane Rocket 3.4 20:10:23 10° S 20:15:21 63° WSW 20:20:21 10° NNW
Cosmos 1939 Rocket 3.8 20:12:39 13° S 20:15:52 44° W 20:19:34 10° NNW
MOS 1 4.1 20:15:11 43° SSE 20:17:05 73° ENE 20:22:45 10° N
Cosmos 2154 Rocket 3.8 20:12:23 10° N 20:18:33 72° E 20:21:10 36° SSE
Cosmos 2084 Rocket 4.3 20:15:46 10° SW 20:20:03 51° WNW 20:22:32 23° N
Cosmos 2056 Rocket 3.7 20:16:54 10° SSW 20:22:16 73° WNW 20:27:41 10° N
ASC 2 Rocket 3.8 20:18:15 10° WSW 20:25:32 61° SSE 20:25:34 61° SSE
Lacrosse 5 rocket 3.4 20:29:08 10° WSW 20:31:53 21° NW 20:32:36 19° NW
Cosmos 2333 4.3 20:34:50 10° NNW 20:39:55 71° NW 20:39:55 71° NW
COSMOS 2428 3.9 20:43:56 10° NNW 20:46:58 33° N 20:46:58 33° N
Cosmos 2219 Rocket 3.5 20:44:03 10° NNW 20:46:48 30° N 20:46:48 30° N
Aurora 2 Rocket 4.0 20:46:29 10° W 20:56:05 69° NNW 20:56:32 68° N
Cosmos 2227 Rocket 3.6 20:53:04 10° SW 20:58:11 36° WNW 21:03:19 10° N
Cosmos 2297 Rocket 4.1 21:04:44 10° SW 21:09:20 26° WNW 21:13:58 10° NNW
ATLAS 2AS CENTAUR R/B 4.3 21:26:16 10° NNW 21:29:20 28° NNW 21:29:20 28° NNW
CZ-3A R/B 4.3 20:42:39 10° W 21:47:09 64° NNW 21:47:51 63° N
